EW7164 Weather Reports


time (UTC)temp
C
wind
direction
speed
KPH
gust
KPH
rain 1hr
cm
rain 24hr
cm
rain mn
cm
humidity
%
barometer
mb
20200404023613 3 41 16.1 0.0 0.00 0.25 0.23 71 1.0
20200404022613 3 57 12.9 0.0 0.00 0.25 0.23 71 1.0
20200404021612 3 54 20.9 0.0 0.00 0.25 0.23 70 1.0
20200404020711 3 51 17.7 0.0 0.00 0.25 0.23 70 1.0
20200404015710 3 46 14.5 0.0 0.00 0.25 0.23 69 1.0
20200404014810 4 49 25.7 0.0 0.00 0.25 0.23 70 1.0
20200404013811 4 48 14.5 0.0 0.00 0.25 0.23 70 1.0
20200404012812 4 49 17.7 0.0 0.00 0.25 0.23 69 1.0
20200404011911 4 48 20.9 0.0 0.00 0.25 0.23 70 1.0
20200404010912 4 45 19.3 0.0 0.00 0.25 0.23 70 1.0
20200404005913 4 57 24.1 0.0 0.00 0.25 0.23 68 1.0
20200404005012 4 41 20.9 0.0 0.00 0.25 0.23 69 1.0
20200404004011 5 39 29.0 0.0 0.00 0.28 0.23 69 1.0
20200404003013 5 37 22.5 0.0 0.00 0.33 0.23 68 1.0
20200404002013 5 33 17.7 0.0 0.03 0.36 0.23 68 1.0
20200404001010 5 46 27.4 0.0 0.03 0.36 0.23 68 1.0
20200404000012 5 38 19.3 0.0 0.03 0.43 0.23 70 1.0
20200403235012 5 52 22.5 0.0 0.03 0.46 0.23 70 1.0
20200403234111 5 40 20.9 0.0 0.03 0.46 0.23 70 1.0
20200403233210 5 37 24.1 0.0 0.03 0.48 0.23 70 1.0
20200403232211 5 61 17.7 0.0 0.00 0.46 0.20 71 1.0
20200403231309 5 53 19.3 0.0 0.00 0.48 0.20 71 0.9
20200403230311 5 56 25.7 0.0 0.00 0.48 0.20 70 0.9
20200403225412 5 56 22.5 0.0 0.00 0.48 0.20 70 0.9
20200403224412 5 42 25.7 0.0 0.00 0.48 0.20 71 0.9
20200403223513 5 43 25.7 0.0 0.00 0.48 0.20 71 0.9
20200403222612 5 41 29.0 0.0 0.00 0.48 0.20 70 0.9
20200403221612 5 53 22.5 0.0 0.00 0.48 0.20 70 0.9
20200403220611 6 53 22.5 0.0 0.00 0.48 0.20 70 0.9
20200403215610 6 53 20.9 0.0 0.00 0.48 0.20 70 0.9
20200403214710 6 42 22.5 0.0 0.00 0.48 0.20 70 0.9
20200403213711 6 54 38.6 0.0 0.00 0.48 0.20 69 0.9
20200403212812 6 67 33.8 0.0 0.00 0.48 0.20 70 0.9
20200403211813 6 39 27.4 0.0 0.00 0.48 0.20 70 0.9
20200403210910 6 63 20.9 0.0 0.00 0.48 0.20 69 0.9
20200403205914 7 58 30.6 0.0 0.00 0.48 0.20 70 0.9
20200403204911 7 59 24.1 0.0 0.00 0.48 0.20 69 0.9
20200403204011 7 63 29.0 0.0 0.00 0.48 0.20 71 0.9
20200403203011 7 54 20.9 0.0 0.00 0.48 0.20 71 0.9
20200403202012 7 51 24.1 0.0 0.00 0.48 0.20 71 0.9
20200403201013 7 42 20.9 0.0 0.00 0.48 0.20 73 0.9
20200403200112 6 52 24.1 0.0 0.00 0.48 0.20 74 0.9
20200403195210 6 60 22.5 0.0 0.00 0.48 0.20 75 0.9
20200403194212 6 50 17.7 0.0 0.00 0.48 0.20 76 0.9
20200403193211 6 48 25.7 0.0 0.00 0.48 0.20 76 0.9
20200403192311 6 50 27.4 0.0 0.00 0.48 0.20 75 0.9
20200403191311 6 50 27.4 0.0 0.00 0.48 0.20 76 0.9
20200403190312 6 48 20.9 0.0 0.00 0.48 0.20 76 0.9
20200403185411 6 66 25.7 0.0 0.00 0.48 0.20 76 0.9
20200403184511 6 49 17.7 0.0 0.00 0.48 0.20 75 0.9
20200403183512 6 58 24.1 0.0 0.00 0.51 0.20 75 0.9
20200403182513 6 65 29.0 0.0 0.00 0.51 0.20 74 0.9
20200403181612 6 38 30.6 0.0 0.00 0.51 0.20 75 0.9
20200403180610 6 48 14.5 0.0 0.00 0.53 0.20 75 0.9
20200403175709 6 44 20.9 0.0 0.00 0.53 0.20 75 0.9
20200403174712 6 46 22.5 0.0 0.00 0.56 0.20 75 0.9
20200403173812 6 51 19.3 0.0 0.00 0.56 0.20 74 0.9
20200403172811 6 60 29.0 0.0 0.00 0.56 0.20 76 0.9
20200403171812 6 32 16.1 0.0 0.00 0.58 0.20 76 0.9
20200403170811 6 57 38.6 0.0 0.00 0.58 0.20 76 0.9
20200403165811 6 56 33.8 0.0 0.00 0.58 0.20 76 0.9
20200403164911 6 61 25.7 0.0 0.03 0.61 0.20 77 0.9
20200403163911 6 58 22.5 0.0 0.03 0.66 0.20 77 0.9
20200403162914 6 54 25.7 0.0 0.03 0.69 0.20 77 0.9
20200403161913 6 62 22.5 0.0 0.03 0.71 0.20 78 0.9
20200403160911 5 56 33.8 0.0 0.03 0.79 0.20 79 0.9
20200403155912 5 62 30.6 0.0 0.03 0.84 0.20 79 0.9
20200403155012 5 59 33.8 0.0 0.03 0.86 0.20 79 0.9
20200403154110 5 61 27.4 0.0 0.00 0.89 0.18 79 0.9
20200403153211 5 68 20.9 0.0 0.00 0.94 0.18 78 0.9
20200403152311 5 51 35.4 0.0 0.00 1.02 0.18 78 0.9
20200403151311 5 58 20.9 0.0 0.00 1.07 0.18 78 0.9
20200403150313 5 61 29.0 0.0 0.00 1.12 0.18 79 0.9
20200403145312 5 59 32.2 0.0 0.00 1.17 0.18 79 0.9
20200403144411 5 69 24.1 0.0 0.00 1.22 0.18 79 0.9
20200403143413 5 67 30.6 0.0 0.00 1.24 0.18 79 0.9
20200403142412 5 59 16.1 0.0 0.00 1.27 0.18 80 0.9
20200403141411 5 64 27.4 0.0 0.00 1.35 0.18 80 0.9
20200403140512 5 60 25.7 0.0 0.00 1.37 0.18 80 0.9
20200403135611 5 50 19.3 0.0 0.00 1.40 0.18 79 0.9
20200403134612 5 62 19.3 0.0 0.00 1.42 0.18 80 0.9
20200403133710 5 47 33.8 0.0 0.00 1.42 0.18 79 0.9
20200403132713 5 47 27.4 0.0 0.00 1.45 0.18 79 0.9
20200403131811 5 50 32.2 0.0 0.00 1.45 0.18 79 0.9
20200403130812 5 52 25.7 0.0 0.00 1.52 0.18 79 0.9
20200403125811 5 56 35.4 0.0 0.00 1.57 0.18 79 0.9
20200403124813 5 73 27.4 0.0 0.03 1.63 0.18 79 0.9
20200403123912 5 56 24.1 0.0 0.03 1.63 0.18 79 0.9
20200403123010 5 55 29.0 0.0 0.03 1.65 0.18 79 0.9
20200403122013 5 58 17.7 0.0 0.03 1.68 0.18 79 0.9
20200403121011 5 40 25.7 0.0 0.03 1.68 0.18 79 0.9
20200403120013 5 49 22.5 0.0 0.03 1.70 0.18 79 0.9
20200403115012 5 59 30.6 0.0 0.00 1.68 0.15 79 0.9
20200403114111 5 60 30.6 0.0 0.00 1.68 0.15 80 0.9
20200403113210 5 57 29.0 0.0 0.00 1.70 0.15 80 0.9
20200403112214 5 66 27.4 0.0 0.00 1.70 0.15 79 0.9
20200403111312 5 46 25.7 0.0 0.00 1.75 0.15 80 0.9
20200403110311 5 59 27.4 0.0 0.03 1.78 0.15 80 0.9
20200403105312 5 63 29.0 0.0 0.03 1.78 0.15 80 0.9
20200403104314 5 62 24.1 0.0 0.03 1.78 0.15 80 0.9
20200403102511 5 50 27.4 0.0 0.03 1.78 0.15 81 0.9
20200403101512 5 61 25.7 0.0 0.03 1.78 0.15 80 0.9
20200403100609 5 45 25.7 0.0 0.03 1.80 0.15 81 0.9
20200403095614 5 49 30.6 0.0 0.00 1.80 0.13 79 0.9
20200403094712 5 39 30.6 0.0 0.00 1.88 0.13 79 0.9
20200403093711 5 43 27.4 0.0 0.00 1.88 0.13 80 0.9
20200403092811 5 52 25.7 0.0 0.00 1.91 0.13 80 0.9
20200403091812 5 50 25.7 0.0 0.00 1.98 0.13 80 0.9
20200403090812 5 49 24.1 0.0 0.00 2.01 0.13 80 0.9
20200403085812 5 31 30.6 0.0 0.00 2.01 0.13 80 0.9
20200403084812 6 51 30.6 0.0 0.00 2.03 0.13 80 0.9
20200403083911 6 38 19.3 0.0 0.03 2.03 0.13 79 0.9
20200403083011 5 51 20.9 0.0 0.03 2.03 0.13 80 0.9
20200403082013 5 51 30.6 0.0 0.03 2.06 0.13 80 0.9
20200403081111 5 56 29.0 0.0 0.03 2.11 0.13 81 0.9
20200403080112 5 44 27.4 0.0 0.03 2.13 0.13 81 0.9
20200403075112 5 48 19.3 0.0 0.03 2.16 0.13 81 0.9
20200403074112 5 49 30.6 0.0 0.00 2.13 0.10 80 0.9
20200403073113 5 60 25.7 0.0 0.00 2.13 0.10 81 0.9
20200403072214 5 49 29.0 0.0 0.00 2.13 0.10 81 0.9
20200403071214 5 38 27.4 0.0 0.00 2.13 0.10 81 0.9
20200403070311 5 59 25.7 0.0 0.00 2.13 0.10 81 0.9
20200403065412 6 51 29.0 0.0 0.00 2.16 0.10 81 0.9
20200403064411 5 34 24.1 0.0 0.00 2.16 0.10 80 0.9
20200403063510 5 44 29.0 0.0 0.00 2.16 0.10 81 0.9
20200403062612 5 38 17.7 0.0 0.03 2.18 0.10 80 0.9
20200403061611 5 47 24.1 0.0 0.03 2.18 0.10 81 0.9
20200403060712 5 49 24.1 0.0 0.03 2.18 0.10 80 0.9
20200403055711 5 39 20.9 0.0 0.05 2.18 0.10 81 0.9
20200403054712 5 40 22.5 0.0 0.08 2.21 0.10 81 0.9
20200403053810 5 53 22.5 0.0 0.08 2.21 0.10 80 0.9
20200403052811 5 61 14.5 0.0 0.08 2.18 0.08 81 0.9
20200403051813 5 52 22.5 0.0 0.08 2.18 0.08 80 0.9
20200403050911 6 53 20.9 0.0 0.08 2.18 0.08 80 0.9
20200403050010 6 45 14.5 0.0 0.05 2.16 0.05 80 0.9
20200403045012 6 47 17.7 0.0 0.05 2.13 0.03 79 0.9
20200403044112 6 49 20.9 0.0 0.05 2.13 0.03 79 0.9
20200403043113 6 38 20.9 0.0 0.05 2.16 0.03 80 0.9
20200403042213 6 44 17.7 0.0 0.03 2.16 0.00 80 0.9
20200403041310 6 43 24.1 0.0 0.03 2.18 0.00 80 0.9
20200403040411 6 49 25.7 0.0 0.03 2.24 0.00 80 0.9
20200403035416 6 43 20.9 0.0 0.00 2.26 2.24 79 0.9
20200403034416 6 42 17.7 0.0 0.00 2.29 2.24 79 0.9
20200403033416 5 37 22.5 0.0 0.00 2.31 2.24 79 0.9
20200403032416 5 50 17.7 0.0 0.00 2.34 2.24 79 0.9
20200403031417 5 48 22.5 0.0 0.00 2.36 2.24 79 0.9
20200403030415 5 35 16.1 0.0 0.00 2.39 2.24 79 0.9
20200403025417 5 35 17.7 0.0 0.00 2.39 2.24 80 0.9
20200403024415 5 57 12.9 0.0 0.00 2.41 2.24 79 0.9